SCP
0 0 0 0 0 0 0 0 0 0 0 0 0 0 0 0 0 0 0 0 0 0 0 0 0 0 0 0 0 0 0 0 0 0 0 0 0 0
0 0 0 0 0 0 0 0 0 0 0 0 0 0 0 0 0 0 0 0 0 0 0 0 0 0 0 0 0 0 0 0 0 0 0 0 0 0
0 0 0 0 0 0 0 0 0 0 0 0 0 0 0 0 0 0 0 0 0 0 0 0 0 0 0 0 0 0 0 0 0 0 0 0 0 0
0 0 0 0 0 0 0 0 0 0 0 0 0 0 0 0 0 0 0 0 0 0 0 0 0 0 0 0 0 0 0 0 0 0 0 0 0 0
0 0 0 0 0 0 0 0 0 0 0 0 0 0 0 0 0 0 0 0 0 0 0 0 0 0 0 0 0 0 0 0 0 0 0 0 0 0
0 0 0 0 0 0 0 0 0 0 0 0 0 0 0 0 0 0 0 0 0 0 0 0 0 0 0 0 0 0 0 0 0 0 0 0 0 0
0 0 0 0 0 0 0 0 0 0 0 0 0 0 0 0 0 0 0 0 0 0 0 0 0 0 0 0 0 0 0 0 0 0 0 0 0 0
0 0 0 0 0 0 0 0 0 0 0 0 0 0 0 0 0 0 0 0 0 0 0 0 0 0 0 0 0 0 0 0 0 0 0 0 0 0
0 0 0 0 0 0 0 0 0 0 0 0 0 0 0 0 0 0 0 0 0 0 0 0 0 0 0 0 0 0 0 0 0 0 0 0 0 0
0 0 0 0 0 0 0 0 0 0 0 0 0 0 0 0 0 0 0 0 0 0 0 0 0 0 0 0 0 0 0 0 0 0 0 0 0 0
0 0 0 0 0 0 0 0 0 0 0 0 0 0 0 0 0 0 0 0 0 0 0 0 0 0 0 0 0 0 0 0 0 0 0 0 0 0
0 0 0 0 0 0 0 0 0 0 0 0 0 0 0 0 0 0 0 0 0 0 0 0 0 0 0 0 0 0 0 0 0 0 0 0 0 0
0 0 0 0 0 0 0 0 0 0 0 0 0 0 0 0 0 0 0 0 0 0 0 0 0 0 0 0 0 0 0 0 0 0 0 0 0 0
0 0 0 0 0 0 0 0 0 0 0 0 0 0 0 0 0 0 0 0 0 0 0 0 0 0 0 0 0 0 0 0 0 0 0 0 0 0
0 0 0 0 0 0 0 0 0 0 0 0 0 0 0 0 0 0 0 0 0 0 0 0 0 0 0 0 0 0 0 0 0 0 0 0 0 0
0 0 0 0 0 0 0 0 0 0 0 0 0 0 0 0 0 0 0 0 0 0 0 0 0 0 0 0 0 0 0 0 0 0 0 0 0 0
0 0 0 0 0 0 0 0 0 0 0 0 0 0 0 0 0 0 0 0 0 0 0 0 0 0 0 0 0 0 0 0 0 0 0 0 0 0
0 0 0 0 0 0 0 0 0 0 0 0 0 0 0 0 0 0 0 0 0 0 0 0 0 0 0 0 0 0 0 0 0 0 0 0 0 0
0 0 0 0 0 0 0 0 0 0 0 0 0 0 0 0 0 0 0 0 0 0 0 0 0 0 0 0 0 0 0 0 0 0 0 0 0 0
0 0 0 0 0 0 0 0 0 0 0 0 0 0 0 0 0 0 0 0 0 0 0 0 0 0 0 0 0 0 0 0 0 0 0 0 0 0
0 0 0 0 0 0 0 0 0 0 0 0 0 0 0 0 0 0 0 0 0 0 0 0 0 0 0 0 0 0 0 0 0 0 0 0 0 0
0 0 0 0 0 0 0 0 0 0 0 0 0 0 0 0 0 0 0 0 0 0 0 0 0 0 0 0 0 0 0 0 0 0 0 0 0 0
0 0 0 0 0 0 0 0 0 0 0 0 0 0 0 0 0 0 0 0 0 0 0 0 0 0 0 0 0 0 0 0 0 0 0 0 0 0
Wind_Speed_500mb
28 20 24 25 26 27 26 24 19 18 15 18 17 17 18 18 23 26 25 24 25 26 29 31 32 34 34 36 39 39 41 43 48 51 50 49 51 53
15 17 18 20 24 16 14 17 15 18 17 17 17 20 21 22 21 18 22 24 26 28 29 31 32 33 34 36 36 39 42 46 50 52 52 55 60 60
13 11 10 13 12 15 15 12 14 14 19 18 15 16 15 15 16 20 23 25 27 29 30 31 30 32 33 33 36 41 46 51 53 51 53 62 65 65
4 8 8 9 7 8 8 8 8 9 11 12 11 12 13 15 18 21 24 27 28 29 29 28 28 30 31 34 40 45 50 53 53 49 60 66 70 67
7 7 5 4 3 4 5 6 7 8 9 10 10 11 14 17 19 22 25 27 29 29 26 25 27 28 29 35 43 49 50 51 49 60 65 72 74 71
12 7 4 2 2 2 4 6 8 10 10 10 10 12 15 18 22 23 25 27 26 26 22 27 27 28 32 39 46 49 51 48 54 66 71 76 81 77
8 4 3 3 0 3 4 6 8 9 11 13 15 16 19 21 24 27 28 29 26 20 20 23 24 24 35 39 47 51 51 52 66 70 75 83 86 78
8 8 6 4 1 3 5 8 10 13 16 17 19 21 23 25 27 29 29 29 28 25 29 26 29 27 39 43 50 53 47 66 69 75 81 88 91 85
9 7 4 4 5 8 11 13 15 18 21 23 25 25 26 27 28 29 30 31 30 30 33 35 36 34 39 43 51 46 62 68 74 78 85 89 92 89
5 3 4 5 7 11 13 16 19 22 25 27 27 28 29 30 30 30 31 31 32 33 38 45 45 47 45 45 50 55 67 74 75 81 83 88 90 86
2 3 5 8 11 15 18 21 25 27 29 30 30 31 33 32 30 30 31 35 38 39 41 43 57 68 65 54 52 69 71 73 78 80 80 87 86 89
2 5 8 12 16 20 23 26 29 31 33 35 36 35 35 33 32 31 33 36 40 43 37 50 60 65 57 63 78 77 75 77 81 77 79 85 87 88
7 9 11 14 19 23 26 28 31 34 38 39 39 38 37 36 35 35 35 38 42 42 44 49 60 64 67 86 97 88 88 88 87 78 85 87 87 82
13 14 16 19 24 27 30 33 36 38 40 40 40 40 41 40 38 38 38 41 45 45 43 50 60 63 71 85 92 101 94 91 86 83 93 94 91 86
20 22 24 26 30 32 36 39 41 41 42 42 42 43 43 43 42 42 42 43 48 46 47 50 58 64 71 79 90 100 104 99 80 94 95 97 98 90
28 29 29 32 36 39 39 40 44 46 47 47 46 45 44 44 44 46 45 44 49 49 50 53 58 67 74 78 85 94 83 84 92 97 98 96 96 83
34 35 36 40 42 42 42 44 47 49 50 50 50 48 47 48 47 46 47 49 53 56 58 57 62 68 72 78 87 81 82 85 89 96 97 100 95 87
41 40 40 42 43 43 46 47 48 51 49 51 52 53 52 50 50 48 49 52 56 57 60 64 68 75 80 76 76 86 82 85 89 92 91 95 102 88
48 43 43 42 45 47 49 52 54 51 51 51 54 54 53 54 55 54 53 54 56 58 60 63 66 71 77 81 83 74 83 84 90 92 89 88 91 92
48 47 48 48 51 54 56 58 59 57 55 54 56 55 51 54 57 56 54 57 58 61 63 62 61 66 70 75 84 82 69 80 83 91 90 91 85 84
48 51 52 56 58 61 63 63 62 62 59 59 59 58 55 58 60 58 57 57 60 61 65 63 61 66 71 73 79 85 73 65 65 75 81 87 89 97
55 59 61 65 67 67 68 67 66 63 60 58 58 56 55 57 58 57 57 59 59 61 64 63 61 65 67 69 74 78 82 75 64 58 54 51 65 73
63 67 69 69 68 67 66 66 65 63 59 56 55 54 54 56 53 56 58 59 60 61 62 65 64 64 63 63 65 72 72 74 82 79 61 54 65 68
Wind_Direction_500mb
266 256 283 289 295 291 284 280 265 266 264 270 258 279 271 277 276 285 294 307 314 316 314 318 320 320 322 321 324 327 328 327 327 327 326 327 326 323
251 278 289 297 289 285 271 273 267 268 269 267 270 272 271 273 289 305 305 309 312 317 318 318 317 316 320 326 328 326 326 326 327 326 325 324 323 321
270 266 263 262 255 263 267 272 274 271 270 268 261 264 279 292 305 305 309 313 316 317 316 316 316 320 325 326 326 327 328 329 327 323 324 323 321 320
238 247 243 258 262 267 271 286 300 296 293 293 293 292 291 301 309 308 310 309 312 313 314 315 320 325 324 325 327 329 329 327 324 322 322 326 324 319
238 229 206 228 256 280 316 329 336 332 317 310 309 290 296 305 307 306 307 312 316 315 312 317 322 323 321 323 327 327 326 325 322 325 326 326 323 319
181 173 209 248 323 341 351 337 333 330 324 322 322 315 309 309 306 307 310 312 313 312 311 320 324 322 323 328 325 326 328 327 326 328 328 325 322 320
200 174 162 141 137 302 339 341 343 331 333 336 329 319 313 310 310 312 312 313 315 305 305 310 320 320 320 322 323 327 330 330 330 328 328 327 323 321
148 139 143 155 121 351 353 353 343 338 337 331 325 318 315 314 311 310 313 314 322 309 313 319 321 320 318 324 325 330 331 332 331 329 329 326 322 320
129 121 102 48 20 10 357 343 336 333 330 329 323 318 311 309 310 311 311 311 311 313 314 316 316 318 317 326 327 333 335 333 332 330 327 324 321 323
99 68 31 8 355 347 343 333 329 328 328 324 318 316 312 308 306 306 306 308 308 314 317 315 317 322 325 333 331 338 336 335 331 328 326 324 324 327
83 20 353 346 341 334 334 329 325 323 319 317 316 313 307 303 302 303 306 307 307 313 318 316 323 325 326 332 333 338 336 332 329 330 330 326 329 330
343 331 333 336 333 329 327 322 319 317 315 314 314 309 305 303 302 301 301 302 307 316 315 317 324 331 327 324 331 334 334 334 332 333 333 330 334 334
303 311 314 313 314 318 316 314 313 311 308 309 309 306 303 299 297 297 298 299 301 306 312 318 320 324 320 318 325 331 336 335 332 336 337 333 337 338
284 292 300 305 309 309 308 307 305 304 304 306 304 303 300 296 293 292 293 293 296 303 310 315 315 319 317 318 322 327 333 333 335 336 337 334 336 339
287 291 296 301 303 304 305 306 304 302 302 301 299 297 294 292 289 287 288 290 295 302 308 310 312 313 315 316 319 326 331 332 335 334 335 335 336 340
280 285 292 299 302 303 303 302 301 300 300 299 294 291 290 289 288 287 289 289 292 296 301 307 310 311 313 318 319 324 329 325 332 333 334 333 333 341
284 293 298 297 297 300 299 299 298 297 297 296 294 292 289 288 288 287 290 293 295 300 304 308 309 311 313 316 318 324 328 330 333 330 331 330 333 342
286 289 291 292 293 294 294 294 294 295 295 293 294 291 287 286 286 287 288 290 294 299 304 309 311 311 312 315 323 326 329 328 330 330 332 332 332 344
286 290 290 288 288 289 291 291 292 291 293 294 292 289 284 283 285 285 287 290 294 298 302 308 312 314 316 317 322 329 326 330 329 329 334 331 332 338
283 286 288 288 288 288 288 289 290 291 292 292 287 285 284 285 284 286 289 293 295 299 303 307 312 311 313 315 316 325 331 329 331 329 333 329 332 336
277 282 286 288 287 286 287 288 290 291 291 290 286 284 284 284 287 289 291 292 295 301 303 308 310 309 312 313 313 318 327 332 331 330 334 330 334 335
282 283 283 283 286 289 291 292 291 291 291 289 287 287 288 287 289 291 291 294 298 300 302 305 307 307 310 312 314 317 324 330 329 333 338 334 334 321
280 282 284 286 288 289 290 290 290 291 291 291 291 290 289 289 291 291 293 295 297 299 302 304 305 308 311 313 314 318 326 328 329 336 345 343 343 343
Wind_Speed_850mb
28 20 24 25 26 27 26 24 19 18 15 18 17 17 18 18 23 26 25 24 25 26 29 31 32 34 34 36 39 39 41 43 48 51 50 49 51 53
15 17 18 20 24 16 14 17 15 18 17 17 17 20 21 22 21 18 22 24 26 28 29 31 32 33 34 36 36 39 42 46 50 52 52 55 60 60
13 11 10 13 12 15 15 12 14 14 19 18 15 16 15 15 16 20 23 25 27 29 30 31 30 32 33 33 36 41 46 51 53 51 53 62 65 65
4 8 8 9 7 8 8 8 8 9 11 12 11 12 13 15 18 21 24 27 28 29 29 28 28 30 31 34 40 45 50 53 53 49 60 66 70 67
7 7 5 4 3 4 5 6 7 8 9 10 10 11 14 17 19 22 25 27 29 29 26 25 27 28 29 35 43 49 50 51 49 60 65 72 74 71
12 7 4 2 2 2 4 6 8 10 10 10 10 12 15 18 22 23 25 27 26 26 22 27 27 28 32 39 46 49 51 48 54 66 71 76 81 77
8 4 3 3 0 3 4 6 8 9 11 13 15 16 19 21 24 27 28 29 26 20 20 23 24 24 35 39 47 51 51 52 66 70 75 83 86 78
8 8 6 4 1 3 5 8 10 13 16 17 19 21 23 25 27 29 29 29 28 25 29 26 29 27 39 43 50 53 47 66 69 75 81 88 91 85
9 7 4 4 5 8 11 13 15 18 21 23 25 25 26 27 28 29 30 31 30 30 33 35 36 34 39 43 51 46 62 68 74 78 85 89 92 89
5 3 4 5 7 11 13 16 19 22 25 27 27 28 29 30 30 30 31 31 32 33 38 45 45 47 45 45 50 55 67 74 75 81 83 88 90 86
2 3 5 8 11 15 18 21 25 27 29 30 30 31 33 32 30 30 31 35 38 39 41 43 57 68 65 54 52 69 71 73 78 80 80 87 86 89
2 5 8 12 16 20 23 26 29 31 33 35 36 35 35 33 32 31 33 36 40 43 37 50 60 65 57 63 78 77 75 77 81 77 79 85 87 88
7 9 11 14 19 23 26 28 31 34 38 39 39 38 37 36 35 35 35 38 42 42 44 49 60 64 67 86 97 88 88 88 87 78 85 87 87 82
13 14 16 19 24 27 30 33 36 38 40 40 40 40 41 40 38 38 38 41 45 45 43 50 60 63 71 85 92 101 94 91 86 83 93 94 91 86
20 22 24 26 30 32 36 39 41 41 42 42 42 43 43 43 42 42 42 43 48 46 47 50 58 64 71 79 90 100 104 99 80 94 95 97 98 90
28 29 29 32 36 39 39 40 44 46 47 47 46 45 44 44 44 46 45 44 49 49 50 53 58 67 74 78 85 94 83 84 92 97 98 96 96 83
34 35 36 40 42 42 42 44 47 49 50 50 50 48 47 48 47 46 47 49 53 56 58 57 62 68 72 78 87 81 82 85 89 96 97 100 95 87
41 40 40 42 43 43 46 47 48 51 49 51 52 53 52 50 50 48 49 52 56 57 60 64 68 75 80 76 76 86 82 85 89 92 91 95 102 88
48 43 43 42 45 47 49 52 54 51 51 51 54 54 53 54 55 54 53 54 56 58 60 63 66 71 77 81 83 74 83 84 90 92 89 88 91 92
48 47 48 48 51 54 56 58 59 57 55 54 56 55 51 54 57 56 54 57 58 61 63 62 61 66 70 75 84 82 69 80 83 91 90 91 85 84
48 51 52 56 58 61 63 63 62 62 59 59 59 58 55 58 60 58 57 57 60 61 65 63 61 66 71 73 79 85 73 65 65 75 81 87 89 97
55 59 61 65 67 67 68 67 66 63 60 58 58 56 55 57 58 57 57 59 59 61 64 63 61 65 67 69 74 78 82 75 64 58 54 51 65 73
63 67 69 69 68 67 66 66 65 63 59 56 55 54 54 56 53 56 58 59 60 61 62 65 64 64 63 63 65 72 72 74 82 79 61 54 65 68
Wind_Direction_850mb
266 256 283 289 295 291 284 280 265 266 264 270 258 279 271 277 276 285 294 307 314 316 314 318 320 320 322 321 324 327 328 327 327 327 326 327 326 323
251 278 289 297 289 285 271 273 267 268 269 267 270 272 271 273 289 305 305 309 312 317 318 318 317 316 320 326 328 326 326 326 327 326 325 324 323 321
270 266 263 262 255 263 267 272 274 271 270 268 261 264 279 292 305 305 309 313 316 317 316 316 316 320 325 326 326 327 328 329 327 323 324 323 321 320
238 247 243 258 262 267 271 286 300 296 293 293 293 292 291 301 309 308 310 309 312 313 314 315 320 325 324 325 327 329 329 327 324 322 322 326 324 319
238 229 206 228 256 280 316 329 336 332 317 310 309 290 296 305 307 306 307 312 316 315 312 317 322 323 321 323 327 327 326 325 322 325 326 326 323 319
181 173 209 248 323 341 351 337 333 330 324 322 322 315 309 309 306 307 310 312 313 312 311 320 324 322 323 328 325 326 328 327 326 328 328 325 322 320
200 174 162 141 137 302 339 341 343 331 333 336 329 319 313 310 310 312 312 313 315 305 305 310 320 320 320 322 323 327 330 330 330 328 328 327 323 321
148 139 143 155 121 351 353 353 343 338 337 331 325 318 315 314 311 310 313 314 322 309 313 319 321 320 318 324 325 330 331 332 331 329 329 326 322 320
129 121 102 48 20 10 357 343 336 333 330 329 323 318 311 309 310 311 311 311 311 313 314 316 316 318 317 326 327 333 335 333 332 330 327 324 321 323
99 68 31 8 355 347 343 333 329 328 328 324 318 316 312 308 306 306 306 308 308 314 317 315 317 322 325 333 331 338 336 335 331 328 326 324 324 327
83 20 353 346 341 334 334 329 325 323 319 317 316 313 307 303 302 303 306 307 307 313 318 316 323 325 326 332 333 338 336 332 329 330 330 326 329 330
343 331 333 336 333 329 327 322 319 317 315 314 314 309 305 303 302 301 301 302 307 316 315 317 324 331 327 324 331 334 334 334 332 333 333 330 334 334
303 311 314 313 314 318 316 314 313 311 308 309 309 306 303 299 297 297 298 299 301 306 312 318 320 324 320 318 325 331 336 335 332 336 337 333 337 338
284 292 300 305 309 309 308 307 305 304 304 306 304 303 300 296 293 292 293 293 296 303 310 315 315 319 317 318 322 327 333 333 335 336 337 334 336 339
287 291 296 301 303 304 305 306 304 302 302 301 299 297 294 292 289 287 288 290 295 302 308 310 312 313 315 316 319 326 331 332 335 334 335 335 336 340
280 285 292 299 302 303 303 302 301 300 300 299 294 291 290 289 288 287 289 289 292 296 301 307 310 311 313 318 319 324 329 325 332 333 334 333 333 341
284 293 298 297 297 300 299 299 298 297 297 296 294 292 289 288 288 287 290 293 295 300 304 308 309 311 313 316 318 324 328 330 333 330 331 330 333 342
286 289 291 292 293 294 294 294 294 295 295 293 294 291 287 286 286 287 288 290 294 299 304 309 311 311 312 315 323 326 329 328 330 330 332 332 332 344
286 290 290 288 288 289 291 291 292 291 293 294 292 289 284 283 285 285 287 290 294 298 302 308 312 314 316 317 322 329 326 330 329 329 334 331 332 338
283 286 288 288 288 288 288 289 290 291 292 292 287 285 284 285 284 286 289 293 295 299 303 307 312 311 313 315 316 325 331 329 331 329 333 329 332 336
277 282 286 288 287 286 287 288 290 291 291 290 286 284 284 284 287 289 291 292 295 301 303 308 310 309 312 313 313 318 327 332 331 330 334 330 334 335
282 283 283 283 286 289 291 292 291 291 291 289 287 287 288 287 289 291 291 294 298 300 302 305 307 307 310 312 314 317 324 330 329 333 338 334 334 321
280 282 284 286 288 289 290 290 290 291 291 291 291 290 289 289 291 291 293 295 297 299 302 304 305 308 311 313 314 318 326 328 329 336 345 343 343 343